Hourly Weather Roundup
Issued by NWS Central Illinois

Home | Current Version | Previous Version | Text Only | Print | Product List | Glossary On
Versions: 1 2 3 4 5 6 7 8 9 10 11 12 13 14 15 16 17 18 19 20 21 22 23 24 25 26 27 28 29 30 31 32 33 34 35 36 37 38 39 40 41 42 43 44 45 46 47 48 49 50
000
NZUS43 KILX 172210
HWRILX

Area Weather Roundup
National Weather Service Lincoln IL
400 PM CST SUN DEC 17 2017

NOTE:  "FAIR" indicates few or no clouds below 12,000 feet, with
       no sigificant weather and/or obstructions to visibility.


CITY           SKY/WX    TMP DP  RH WIND       PRES   REMARKS
Bloomington    CLOUDY    46  39  76 S10       30.00S
Champaign      CLOUDY    48  39  71 S13       30.02S
Danville       CLOUDY    46  37  72 S5        30.00F
Decatur        CLOUDY    47  38  71 S9        30.01S
Effingham      MOCLDY    46  40  78 S8        30.06R
Flora          CLOUDY    46  41  83 S7        30.07R
Galesburg      DRIZZLE   46  40  78 SW3       29.98R
Jacksonville   CLOUDY    49  38  66 SE5       29.99R
Lacon          CLOUDY    47  38  70 SW3       29.97F
Lawrenceville  CLOUDY    46  39  76 S9        30.08S
Litchfield     CLOUDY    50  37  61 S9        30.01R
$$


CITY           SKY/WX    TMP DP  RH WIND       PRES   REMARKS
Lincoln        CLOUDY    47  44  87 S3        30.00S
Macomb         CLOUDY    46  42  85 E5        30.00S
Mattoon        CLOUDY    45  39  79 S9        30.03R
Mt Carmel AP   CLOUDY    45  38  78 S8        30.07S
Olney-Noble AP CLOUDY    44  42  91 S7        30.07S
Paris AP       CLOUDY    43  38  82 S9        30.05S
Peoria         CLOUDY    46  42  86 SW6       30.00R
Pontiac        CLOUDY    48  40  73 SW6       30.00S
Rantoul        CLOUDY    48  40  73 S5        30.01F
Robinson       CLOUDY    45  39  80 S8        30.08R
Springfield    CLOUDY    50  40  68 S6        30.01S
Taylorville    CLOUDY    49  36  59 S9        30.01S
$$

...REGIONAL REPORTS...


CITY           SKY/WX    TMP DP  RH WIND       PRES   REMARKS
Chicago O`Hare CLOUDY    41  32  70 CALM      29.97S
Kankakee       CLOUDY    45  36  71 S7        30.01R
Moline         CLOUDY    44  33  65 W5        29.97R
Mount Sterling CLOUDY    48  39  70 S7        29.97S
Mount Vernon   CLOUDY    44  41  89 S6        30.07R
Pittsfield     CLOUDY    49  40  70 S5        30.00R
Quincy         CLOUDY    48  42  80 S8        29.97S
Rockford       CLOUDY    38  32  79 SE3       30.00R
$$


CITY           SKY/WX    TMP DP  RH WIND       PRES   REMARKS
Burlington     CLOUDY    44  41  89 CALM      29.96S
Cedar Rapids   CLOUDY    38  30  73 CALM      29.95R
Des Moines     CLOUDY    38  31  76 CALM      29.95S
Kirksville     CLOUDY    44  32  62 SW6       29.97S HAZE
Ottumwa        CLOUDY    41  39  93 CALM      29.95S FOG
St Louis       CLOUDY    54  40  59 SW9       30.01R
$$


CITY           SKY/WX    TMP DP  RH WIND       PRES   REMARKS
Terre Haute    CLOUDY    45  38  76 S7        30.06R
Evansville     LGT RAIN  44  40  85 SE7       30.09F
Indianapolis   CLOUDY    42  39  89 S7        30.06R
Lafayette      CLOUDY    44  37  76 S3        30.03F
Madison        CLOUDY    33  29  85 SE5       29.99R FOG     WCI  29
Milwaukee      CLOUDY    36  33  89 CALM      29.98F FOG
$$






USA.gov is the U.S. government's official web portal to all federal, state and local government web resources and services.